| time (UTC) | temp F | wind direction | speed MPH | gust MPH | rain 1hr in | rain 24hr in | rain mn in | humidity % | barometer mb |
| 20260506222002 | 51 | 269 | 2.0 | 10.0 | 0.00 | 0.00 | 0.00 | 97 | |
| 20260506221003 | 51 | 264 | 3.0 | 12.0 | 0.00 | 0.00 | 0.00 | 97 | |
| 20260506220003 | 52 | 275 | 1.0 | 4.0 | 0.00 | 0.00 | 0.00 | 96 | |
| 20260506215004 | 52 | 241 | 1.0 | 5.0 | 0.00 | 0.00 | 0.00 | 96 | |
| 20260506214002 | 52 | 269 | 2.0 | 10.0 | 0.00 | 0.00 | 0.00 | 97 | |
| 20260506213003 | 52 | 252 | 2.0 | 6.0 | 0.00 | 0.00 | 0.00 | 97 | |
| 20260506212008 | 52 | 279 | 1.0 | 9.0 | 0.00 | 0.00 | 0.00 | 95 | |
| 20260506211003 | 51 | 258 | 3.0 | 7.0 | 0.00 | 0.00 | 0.00 | 96 | |
| 20260506210004 | 52 | 231 | 3.0 | 10.0 | 0.00 | 0.00 | 0.00 | 97 | |
| 20260506205003 | 51 | 219 | 3.0 | 9.0 | 0.00 | 0.00 | 0.00 | 97 | |
| 20260506204004 | 51 | 260 | 4.0 | 10.0 | 0.00 | 0.00 | 0.00 | 96 | |
| 20260506203003 | 52 | 261 | 3.0 | 6.0 | 0.00 | 0.00 | 0.00 | 97 | |
| 20260506202003 | 51 | 279 | 2.0 | 8.0 | 0.00 | 0.00 | 0.00 | 96 | |
| 20260506201003 | 51 | 266 | 3.0 | 7.0 | 0.00 | 0.00 | 0.00 | 98 | |
| 20260506200004 | 50 | 256 | 4.0 | 8.0 | 0.00 | 0.00 | 0.00 | 98 | |
| 20260506195003 | 51 | 242 | 1.0 | 5.0 | 0.00 | 0.00 | 0.00 | 96 | |
| 20260506194003 | 51 | 265 | 0.0 | 8.0 | 0.00 | 0.00 | 0.00 | 98 | |
| 20260506193002 | 51 | 227 | 2.0 | 6.0 | 0.00 | 0.00 | 0.00 | 98 | |
| 20260506192002 | 50 | 258 | 1.0 | 6.0 | 0.00 | 0.00 | 0.00 | 99 | |
| 20260506191003 | 50 | 266 | 0.0 | 5.0 | 0.00 | 0.00 | 0.00 | ||
| 20260506190003 | 50 | 263 | 1.0 | 5.0 | 0.00 | 0.00 | 0.00 | ||
| 20260506185003 | 50 | 237 | 1.0 | 7.0 | 0.00 | 0.00 | 0.00 | ||
| 20260506184003 | 50 | 244 | 1.0 | 4.0 | 0.00 | 0.00 | 0.00 | ||
| 20260506183004 | 50 | 269 | 2.0 | 6.0 | 0.00 | 0.00 | 0.00 | ||
| 20260506182002 | 50 | 260 | 1.0 | 5.0 | 0.00 | 0.00 | 0.00 | ||
| 20260506181002 | 50 | 200 | 0.0 | 4.0 | 0.00 | 0.00 | 0.00 | 98 | |
| 20260506180004 | 50 | 227 | 1.0 | 4.0 | 0.00 | 0.00 | 0.00 | 98 | |
| 20260506175003 | 50 | 246 | 1.0 | 3.0 | 0.00 | 0.00 | 0.00 | 97 | |
| 20260506174003 | 51 | 215 | 0.0 | 4.0 | 0.00 | 0.00 | 0.00 | 98 | |
| 20260506173003 | 50 | 263 | 1.0 | 4.0 | 0.00 | 0.00 | 0.00 | 97 | |
| 20260506172003 | 51 | 265 | 0.0 | 6.0 | 0.00 | 0.00 | 0.00 | 97 | |
| 20260506171003 | 50 | 276 | 1.0 | 5.0 | 0.00 | 0.00 | 0.00 | 99 | |
| 20260506170004 | 50 | 237 | 1.0 | 6.0 | 0.00 | 0.00 | 0.00 | ||
| 20260506165003 | 50 | 262 | 3.0 | 6.0 | 0.00 | 0.00 | 0.00 | ||
| 20260506164003 | 49 | 247 | 1.0 | 6.0 | 0.00 | 0.00 | 0.00 | ||
| 20260506163004 | 49 | 247 | 1.0 | 4.0 | 0.00 | 0.00 | 0.00 | ||
| 20260506162003 | 50 | 104 | 0.0 | 4.0 | 0.00 | 0.00 | 0.00 | ||
| 20260506161002 | 49 | 248 | 1.0 | 4.0 | 0.00 | 0.00 | 0.00 | ||
| 20260506160003 | 49 | 265 | 0.0 | 3.0 | 0.00 | 0.00 | 0.00 | ||
| 20260506155003 | 49 | 186 | 1.0 | 4.0 | 0.00 | 0.00 | 0.00 | ||
| 20260506154003 | 49 | 225 | 1.0 | 3.0 | 0.00 | 0.00 | 0.00 | ||
| 20260506153003 | 49 | 221 | 0.0 | 2.0 | 0.00 | 0.00 | 0.00 | ||
| 20260506152003 | 49 | 124 | 0.0 | 2.0 | 0.00 | 0.00 | 0.00 | ||
| 20260506151003 | 48 | 117 | 1.0 | 5.0 | 0.00 | 0.00 | 0.00 | ||
| 20260506150004 | 48 | 202 | 0.0 | 4.0 | 0.00 | 0.00 | 0.00 | ||
| 20260506145003 | 48 | 219 | 2.0 | 4.0 | 0.00 | 0.00 | 0.00 | ||
| 20260506144003 | 48 | 90 | 0.0 | 3.0 | 0.00 | 0.00 | 0.00 | ||
| 20260506143003 | 48 | 100 | 1.0 | 3.0 | 0.00 | 0.00 | 0.00 | ||
| 20260506142003 | 48 | 81 | 1.0 | 2.0 | 0.00 | 0.00 | 0.00 | ||
| 20260506141003 | 48 | 70 | 0.0 | 1.0 | 0.00 | 0.00 | 0.00 | ||
| 20260506140008 | 48 | 213 | 1.0 | 3.0 | 0.00 | 0.00 | 0.00 | ||
| 20260506135003 | 48 | 236 | 0.0 | 2.0 | 0.00 | 0.00 | 0.00 | ||
| 20260506134003 | 48 | 268 | 1.0 | 4.0 | 0.00 | 0.00 | 0.00 | ||
| 20260506133003 | 48 | 206 | 0.0 | 3.0 | 0.00 | 0.00 | 0.00 | ||
| 20260506132003 | 48 | 289 | 0.0 | 4.0 | 0.00 | 0.00 | 0.00 | 100 | |
| 20260506131003 | 48 | 306 | 146.0 | 2.0 | 0.00 | 0.00 | 0.00 | ||
| 20260506130003 | 48 | 257 | 0.0 | 2.0 | 0.00 | 0.00 | 0.00 | ||
| 20260506125002 | 48 | 247 | 0.0 | 4.0 | 0.00 | 0.00 | 0.00 | ||
| 20260506124003 | 48 | 256 | 1.0 | 3.0 | 0.00 | 0.00 | 0.00 | ||
| 20260506123003 | 48 | 251 | 0.0 | 2.0 | 0.00 | 0.00 | 0.00 | ||
| 20260506122003 | 48 | 199 | 0.0 | 3.0 | 0.00 | 0.00 | 0.00 | ||
| 20260506121003 | 48 | 290 | 0.0 | 3.0 | 0.00 | 0.00 | 0.00 | ||
| 20260506120004 | 48 | 262 | 0.0 | 3.0 | 0.00 | 0.00 | 0.00 | ||
| 20260506115003 | 48 | 267 | 1.0 | 4.0 | 0.00 | 0.00 | 0.00 | ||
| 20260506114003 | 48 | 212 | 1.0 | 3.0 | 0.00 | 0.00 | 0.00 | ||
| 20260506113019 | 48 | 242 | 1.0 | 3.0 | 0.00 | 0.00 | 0.00 | ||
| 20260506112003 | 48 | 244 | 0.0 | 4.0 | 0.00 | 0.00 | 0.00 | ||
| 20260506111003 | 48 | 246 | 1.0 | 2.0 | 0.00 | 0.00 | 0.00 | 100 | |
| 20260506110003 | 48 | 247 | 0.0 | 4.0 | 0.00 | 0.00 | 0.00 | ||
| 20260506105003 | 48 | 192 | 0.0 | 5.0 | 0.00 | 0.00 | 0.00 | ||
| 20260506104003 | 48 | 247 | 1.0 | 4.0 | 0.00 | 0.00 | 0.00 | ||
| 20260506103004 | 48 | 259 | 0.0 | 2.0 | 0.00 | 0.00 | 0.00 | ||
| 20260506102002 | 48 | 123 | 0.0 | 4.0 | 0.00 | 0.00 | 0.00 | ||
| 20260506101003 | 48 | 147 | 1.0 | 3.0 | 0.00 | 0.00 | 0.00 | ||
| 20260506100009 | 48 | 206 | 0.0 | 4.0 | 0.00 | 0.00 | 0.00 | ||
| 20260506095003 | 48 | 170 | 0.0 | 3.0 | 0.00 | 0.00 | 0.00 | ||
| 20260506094003 | 48 | 234 | 0.0 | 4.0 | 0.00 | 0.00 | 0.00 | ||
| 20260506093004 | 48 | 261 | 1.0 | 5.0 | 0.00 | 0.00 | 0.00 | ||
| 20260506092002 | 48 | 252 | 1.0 | 6.0 | 0.00 | 0.00 | 0.00 | ||
| 20260506091003 | 48 | 298 | 0.0 | 4.0 | 0.00 | 0.00 | 0.00 | ||
| 20260506090003 | 48 | 250 | 1.0 | 2.0 | 0.00 | 0.00 | 0.00 | ||
| 20260506085003 | 48 | 287 | 0.0 | 4.0 | 0.00 | 0.00 | 0.00 | ||
| 20260506084003 | 48 | 244 | 1.0 | 4.0 | 0.00 | 0.00 | 0.00 | ||
| 20260506083003 | 48 | 162 | 0.0 | 2.0 | 0.00 | 0.00 | 0.00 | ||
| 20260506082002 | 48 | 261 | 1.0 | 3.0 | 0.00 | 0.00 | 0.00 | ||
| 20260506081002 | 48 | 239 | 1.0 | 4.0 | 0.00 | 0.00 | 0.00 | ||
| 20260506073003 | 49 | 265 | 1.0 | 3.0 | 0.00 | 0.00 | 0.00 | ||
| 20260506072003 | 49 | 302 | 0.0 | 1.0 | 0.00 | 0.00 | 0.00 | 100 | |
| 20260506071003 | 49 | 68 | 146.0 | 0.0 | 0.00 | 0.00 | 0.00 | ||
| 20260506062003 | 49 | 257 | 0.0 | 2.0 | 0.00 | 0.00 | 0.00 | ||
| 20260506061003 | 49 | 277 | 1.0 | 3.0 | 0.00 | 0.00 | 0.00 | ||
| 20260506051003 | 50 | 258 | 2.0 | 5.0 | 0.00 | 0.00 | 0.00 | ||
| 20260506045003 | 50 | 265 | 2.0 | 4.0 | 0.00 | 0.00 | 0.00 | ||
| 20260506044002 | 50 | 258 | 2.0 | 4.0 | 0.00 | 0.00 | 0.00 | ||
| 20260506043003 | 50 | 262 | 1.0 | 5.0 | 0.00 | 0.00 | 0.00 | ||
| 20260506042003 | 50 | 255 | 2.0 | 5.0 | 0.00 | 0.00 | 0.00 | ||
| 20260506041003 | 50 | 264 | 2.0 | 5.0 | 0.00 | 0.00 | 0.00 | ||
| 20260506040004 | 50 | 256 | 3.0 | 7.0 | 0.00 | 0.00 | 0.00 | ||
| 20260506035003 | 51 | 253 | 3.0 | 8.0 | 0.00 | 0.00 | 0.00 | ||
| 20260506034003 | 51 | 260 | 3.0 | 8.0 | 0.00 | 0.00 | 0.00 | ||
| 20260506033003 | 51 | 262 | 4.0 | 7.0 | 0.00 | 0.00 | 0.00 | ||
| 20260506032003 | 51 | 260 | 3.0 | 8.0 | 0.00 | 0.00 | 0.00 | ||
| 20260506031003 | 51 | 276 | 1.0 | 7.0 | 0.00 | 0.00 | 0.00 | ||
| 20260506030004 | 51 | 259 | 4.0 | 8.0 | 0.00 | 0.00 | 0.00 | ||
| 20260506025003 | 51 | 255 | 3.0 | 7.0 | 0.00 | 0.00 | 0.00 | ||
| 20260506024003 | 52 | 261 | 2.0 | 8.0 | 0.00 | 0.00 | 0.00 | ||
| 20260506023004 | 52 | 267 | 2.0 | 7.0 | 0.00 | 0.00 | 0.00 | ||
| 20260506022002 | 52 | 256 | 3.0 | 9.0 | 0.00 | 0.00 | 0.00 | ||
| 20260506021002 | 52 | 269 | 3.0 | 6.0 | 0.00 | 0.00 | 0.00 | 99 | |
| 20260506020004 | 53 | 269 | 2.0 | 8.0 | 0.00 | 0.00 | 0.00 | 98 | |
| 20260506015003 | 53 | 287 | 1.0 | 11.0 | 0.00 | 0.00 | 0.00 | 97 | |
| 20260506014003 | 53 | 259 | 4.0 | 8.0 | 0.00 | 0.00 | 0.00 | 95 | |
| 20260506013004 | 54 | 262 | 4.0 | 11.0 | 0.00 | 0.00 | 0.00 | 92 | |
| 20260506012002 | 55 | 259 | 3.0 | 9.0 | 0.00 | 0.00 | 0.00 | 91 | |
| 20260506011002 | 55 | 270 | 1.0 | 10.0 | 0.00 | 0.00 | 0.00 | 90 | |
| 20260506010003 | 56 | 277 | 2.0 | 6.0 | 0.00 | 0.00 | 0.00 | 89 | |
| 20260506005003 | 56 | 262 | 4.0 | 10.0 | 0.00 | 0.00 | 0.00 | 88 | |
| 20260506004003 | 57 | 265 | 3.0 | 10.0 | 0.00 | 0.00 | 0.00 | 85 | |
| 20260506003003 | 57 | 265 | 4.0 | 9.0 | 0.00 | 0.00 | 0.00 | 86 | |
| 20260506002003 | 57 | 252 | 4.0 | 10.0 | 0.00 | 0.00 | 0.00 | 87 | |
| 20260506001002 | 56 | 263 | 5.0 | 11.0 | 0.00 | 0.00 | 0.00 | 87 | |
| 20260506000003 | 57 | 262 | 3.0 | 11.0 | 0.00 | 0.00 | 0.00 | 85 | |
| 20260505235003 | 58 | 253 | 2.0 | 9.0 | 0.00 | 0.00 | 0.00 | 84 | |
| 20260505234003 | 57 | 252 | 4.0 | 10.0 | 0.00 | 0.00 | 0.00 | 86 | |
| 20260505233003 | 58 | 251 | 3.0 | 9.0 | 0.00 | 0.00 | 0.00 | 82 | |
| 20260505232002 | 58 | 254 | 3.0 | 8.0 | 0.00 | 0.00 | 0.00 | 83 | |
| 20260505231002 | 56 | 258 | 4.0 | 12.0 | 0.00 | 0.00 | 0.00 | 87 | |
| 20260505230003 | 56 | 249 | 4.0 | 14.0 | 0.00 | 0.00 | 0.00 | 86 | |
| 20260505225003 | 59 | 285 | 0.0 | 5.0 | 0.00 | 0.00 | 0.00 | 81 | |
| 20260505224003 | 58 | 298 | 2.0 | 4.0 | 0.00 | 0.00 | 0.00 | 81 | |
| 20260505223004 | 59 | 296 | 1.0 | 6.0 | 0.00 | 0.00 | 0.00 | 80 |